Location: Cuzcurrita-R�o Tir�n
(42.5415°N, 2.9642°W)
Time: 00:22:40
(UTC+00:00)

Cosmos 1315 Rocket - Pass Details

Date: 17 January 2021
Orbit: 530 x 567 km, 81.2° (Epoch: 08 March)

Event Time Altitude Azimuth Distance (km) Brightness Sun altitude
Rises 18:06:26 0° 352° (N) 2,695 6.2 -11.0°
Reaches altitude 10° 18:08:36 10° 355° (N) 1,804 5.3 -11.4°
Maximum altitude 18:12:33 70° 79° (E) 580 2.7 -12.1°
Drops below altitude 10° 18:16:32 10° 164° (SSE) 1,809 5.5 -12.8°
Sets 18:18:42 0° 166° (SSE) 2,704 6.4 -13.1°
